Regional Weather Roundup
Issued by NWS Northern Indiana

Home | Current Version | Previous Version | Text Only | Print | Product List | Glossary Off
Versions: 1 2 3 4 5 6 7 8 9 10 11 12 13 14 15 16 17 18 19 20 21 22 23 24 25 26 27 28 29 30 31 32 33 34 35 36 37 38 39 40 41 42 43 44 45 46 47 48 49 50

000
ASUS43 KIWX 120010
RWRIWX

KIWX WEATHER ROUNDUP
NATIONAL WEATHER SERVICE NORTHERN INDIANA
700 PM EST MON DEC 11 2017

NOTE: "FAIR" INDICATES FEW OR NO CLOUDS BELOW 12,000 FEET WITH NO
SIGNIFICANT WEATHER AND/OR OBSTRUCTIONS TO VISIBILITY.

* THESE STATIONS ARE NOT UNDER NWS QUALITY CONTROL. THEY ALSO MAY NOT
  REPORT WEATHER SUCH AS PRECIPITATION OR FOG.

INZ001>027-120100-
NORTHERN INDIANA

CITY           SKY/WX    TMP DP  RH WIND       PRES   REMARKS
GARY*          CLOUDY    37  25  60 N7        29.74R
VALPARAISO     CLOUDY    33  27  78 NE5       29.70S WCI  29
6HR MIN TEMP:  32; 6HR MAX TEMP:  38;

MICHIGAN CITY* CLOUDY    32  27  80 N3        29.73R
LAPORTE*       CLOUDY    30  26  83 NE5       29.71S WCI  26
6HR MIN TEMP:  29; 6HR MAX TEMP:  32;

KNOX*          CLOUDY    30  27  86 N6        29.68F WCI  24
SOUTH BEND     CLOUDY    31  27  85 E3        29.71F
6HR MIN TEMP:  30; 6HR MAX TEMP:  31;

ELKHART*       CLOUDY    32  27  80 CALM      29.70F
GOSHEN         PTCLDY    30  25  81 NE5       29.69F WCI  25
6HR MIN TEMP:  30; 6HR MAX TEMP:  33;

MONTICELLO*    MOCLDY    35  26  72 E6        29.66S WCI  29
6HR MIN TEMP:  35; 6HR MAX TEMP:  40;

LOGANSPORT*    PTCLDY    34  28  80 E7        29.67F WCI  28
ROCHESTER*     MOCLDY    34  30  86 E5        29.67F WCI  30
WARSAW*        PTCLDY    30  27  86 SE5       29.68F WCI  25
AUBURN*        MOCLDY    32  27  80 SE3       29.71F
FORT WAYNE     CLOUDY    31  27  85 E7        29.69F WCI  24
6HR MIN TEMP:  31; 6HR MAX TEMP:  35;

HUNTINGTON*    PTCLDY    32  28  85 E3        29.69F
6HR MIN TEMP:  32; 6HR MAX TEMP:  36;

PERU/GRISSOM   CLOUDY    36  30  78 SE10      29.65F
6HR MIN TEMP:  35; 6HR MAX TEMP:  37;

MARION*        CLOUDY    35  28  75 E8        29.67F WCI  29
6HR MIN TEMP:  15; 6HR MAX TEMP:  63;


$$
INZ028>050-120100-
CENTRAL INDIANA

CITY           SKY/WX    TMP DP  RH WIND       PRES   REMARKS
LAFAYETTE      PTCLDY    41  26  55 W9        29.66R
6HR MIN TEMP:  39; 6HR MAX TEMP:  46;

KOKOMO*        MOCLDY    34  29  82 E8        29.67F WCI  27
6HR MIN TEMP:  34; 6HR MAX TEMP:  38;

MUNCIE*        CLOUDY    37  28  70 SE7       29.66F
6HR MIN TEMP:  36; 6HR MAX TEMP:  42;

INDIANAPOLIS   CLOUDY    45  29  53 W14       29.68R
6HR MIN TEMP:  40; 6HR MAX TEMP:  46;


$$
MIZ043>046-050>051-056>058-064>065-071>073-077>080-120100-
SOUTHWEST LOWER MICHIGAN

CITY           SKY/WX    TMP DP  RH WIND       PRES   REMARKS
BATTLE CREEK   LGT SNOW  29  27  92 S5        29.72S VSB 1   WCI  24
6HR MIN TEMP:  29; 6HR MAX TEMP:  31; 6HR PCP:  0.02;

BENTON HARBOR  SNOW      31  26  82 CALM      29.74R VSB 1/2
6HR MIN TEMP:  31; 6HR MAX TEMP:  33; 6HR PCP: TRACE;

COLDWATER*     CLOUDY    31  26  83 MISG      29.71S
6HR MIN TEMP:  31; 6HR MAX TEMP:  32;

HILLSDALE*     CLOUDY    30  27  86 S6        29.70S WCI  24
HOLLAND        CLOUDY    31  26  82 S6        29.75R WCI  25
6HR MIN TEMP:  30; 6HR MAX TEMP:  32;

GRAND RAPIDS   CLOUDY    30  26  85 S5        29.73R WCI  25
6HR MIN TEMP:  29; 6HR MAX TEMP:  30; 6HR PCP: TRACE;

KALAMAZOO      LGT SNOW  30  27  88 CALM      29.73R FOG
6HR MIN TEMP:  30; 6HR MAX TEMP:  32; 6HR PCP:  0.02;

STURGIS*       CLOUDY    31  26  81 SE6       29.69F WCI  25
6HR MIN TEMP:  30; 6HR MAX TEMP:  32;

THREE RIVERS*  CLOUDY    32  26  79 CALM      29.72S
6HR MIN TEMP:  31; 6HR MAX TEMP:  33;


$$
OHZ001>008-015>018-024>025-120100-
NORTHWEST OHIO

CITY           SKY/WX    TMP DP  RH WIND       PRES   REMARKS
WAUSEON*       CLOUDY    32  28  86 S7        29.72F WCI  26
DEFIANCE       CLOUDY    31  25  78 E3        29.73F
6HR MIN TEMP:  31; 6HR MAX TEMP:  33;

FINDLAY        CLOUDY    33  24  69 S10       29.72F WCI  25
6HR MIN TEMP:  33; 6HR MAX TEMP:  36;

TOLEDO EXPRESS PTCLDY    32  26  78 S3        29.73F
6HR MIN TEMP:  30; 6HR MAX TEMP:  33;

TOLEDO METCALF CLOUDY    33  24  69 SE5       29.75F WCI  29
6HR MIN TEMP:  31; 6HR MAX TEMP:  34;

LIMA           PTCLDY    33  27  78 S10       29.71F WCI  25
6HR MIN TEMP:  32; 6HR MAX TEMP:  35;


$$
AND FOR LAKE MICHIGAN COASTAL AND OPEN LAKE BUOY OBSERVATIONS

STATION/POSITION TEMP    WIND        PRES    VSBY  WAVE
                 AIR SEA DIR/SP/G                  HT/PER
                 (F)     (DEG/KT/KT) (MB)    (MI)  (FT/S)
CALUMET HARBOR    36     340/  5/  6 1006.3R
MICHIGAN CITY     33      30/  5/  6   N/A
BURNS HARBOR      35      40/  4/  6 1007.1R
SAINT JOSEPH      32      CALM  /  1 1008.1

$$
&&




USA.gov is the U.S. government's official web portal to all federal, state and local government web resources and services.